カタログに戻る

STARLINK-4128

運用中通信VLEO
NORAD 53249·PAYLOAD·🇺🇸 United States

打ち上げ Jul 24, 2022 から Cape Canaveral Space Force Station

Loading…

次のパス (今後24時間)

TLE

最新Source: CelesTrak SupGP

元期: Sep 14, 2026, 21:06 UTC

1 53249C 22086H   26257.87965278  .00042607  00000+0  13705-2 0  2578
2 53249  53.1580  51.2407 0001255  78.5597  28.8684 15.31673058    16

AllMySatでSTARLINK-4128をリアルタイム追跡

Download on the App Store